Regional Weather Roundup
Issued by NWS Raleigh/Durham, NC

Home | Current Version | Previous Version | Text Only | Print | Product List | Glossary On
Versions: 1 2 3 4 5 6 7 8 9 10 11 12 13 14 15 16 17 18 19 20 21 22 23 24 25 26 27 28 29 30 31 32 33 34 35 36 37 38 39 40 41 42 43 44 45 46 47 48 49 50
000
ASUS42 KRAH 291410
RWRRAH
NORTH CAROLINA WEATHER ROUNDUP
NATIONAL WEATHER SERVICE RALEIGH NC
1000 AM EDT SUN MAR 29 2015

NOTE: "FAIR" INDICATES FEW OR NO CLOUDS BELOW 12,000 FEET WITH NO
SIGNIFICANT WEATHER AND/OR OBSTRUCTIONS TO VISIBILITY.

NCZ001-053-055-056-065-067-291500-
WESTERN NORTH CAROLINA

CITY           SKY/WX    TMP DP  RH WIND       PRES   REMARKS
ASHEVILLE      SUNNY     34  10  37 CALM      30.36R
JEFFERSON      SUNNY     31  -3  22 E3        30.29R
MORGANTON      SUNNY     35  15  43 SW3       30.45R
HICKORY        SUNNY     34  13  41 VRB5      30.41R WCI  30
RUTHERFORDTON  SUNNY     35  14  41 S6        30.43R WCI  30
MOUNT AIRY     SUNNY     35   6  29 W5        30.42R WCI  31
BOONE          SUNNY     31 -11  15 NW9       30.30R WCI  23
$$

NCZ021-022-025-041-071-084-088-291500-
CENTRAL NORTH CAROLINA

CITY           SKY/WX    TMP DP  RH WIND       PRES   REMARKS
CHARLOTTE      SUNNY     40   7  25 VRB5      30.44R
GREENSBORO     SUNNY     34   8  33 VRB3      30.41R
WINSTON-SALEM  SUNNY     35   7  31 CALM      30.42R
RALEIGH-DURHAM SUNNY     35  11  36 N9        30.44R WCI  28
FORT BRAGG     SUNNY     37  10  32 N6        30.44R WCI  32
FAYETTEVILLE   SUNNY     38  11  32 N13G21    30.45R WCI  30
BURLINGTON     SUNNY     36   9  32 NW10      30.42R WCI  28
LAURINBURG     SUNNY     38  10  31 NE8       30.46R WCI  32
$$

NCZ011-015-027-028-043-044-047-080-103-291500-
NORTHEASTERN NORTH CAROLINA

CITY           SKY/WX    TMP DP  RH WIND       PRES   REMARKS
ROCKY MT-WILSO SUNNY     36  12  37 N12       30.44R WCI  28
GREENVILLE     SUNNY     34  14  44 N12       30.44R WCI  25
WASHINGTON     SUNNY     34  16  47 N14       30.43S WCI  25
ELIZABETH CITY SUNNY     34  13  41 N14G21    30.41R WCI  25
MANTEO         SUNNY     34  12  40 N15G22    30.40R WCI  25
CAPE HATTERAS  SUNNY     36  15  42 NW12G25   30.39R WCI  28
$$

NCZ078-087-090-091-093-098-101-291500-
SOUTHEASTERN NORTH CAROLINA

CITY           SKY/WX    TMP DP  RH WIND       PRES   REMARKS
LUMBERTON      SUNNY     39  13  34 N9        30.46R WCI  33
GOLDSBORO      SUNNY     36  16  43 N14       30.42R WCI  27
KINSTON        SUNNY     37  14  38 N12       30.44R WCI  30
KENANSVILLE    SUNNY     36  13  39 N9        30.46R WCI  29
NEW BERN       SUNNY     37  15  40 N14       30.44R WCI  28
CHERRY POINT   SUNNY     38  15  39 N17G23    30.43R WCI  28
BEAUFORT       SUNNY     37  16  42 N15       30.41S WCI  28
JACKSONVILLE   SUNNY     37  13  37 N15       30.43R WCI  28
WILMINGTON     SUNNY     38  14  37 N13       30.45R WCI  30
$$



USA.gov is the U.S. government's official web portal to all federal, state and local government web resources and services.